Location: Moena
(46.3667°N, 11.6500°E)
Time: 18:38:45
(UTC+00:00)

Cosmos 1461 - Pass Details

Date: 03 March 2021
Orbit: 505 x 659 km, 65.0° (Epoch: 15 April)

Event Time Altitude Azimuth Distance (km) Brightness Sun altitude
Rises 17:28:54 0° 219° (SW) 2,956 7.3 -5.4°
Reaches altitude 10° 17:31:11 10° 221° (SW) 2,059 6.4 -5.8°
Maximum altitude 17:35:53 76° 307° (NW) 684 3.4 -6.6°
Drops below altitude 10° 17:40:38 10° 34° (NE) 2,077 5.4 -7.4°
Sets 17:42:57 0° 36° (NE) 2,983 6.2 -7.8°
